sat.trackr.live / text

‹ back to catalog

STARLINK-35118

NORAD 66858 · 2025-281L

PAYLOAD ACTIVE UNKNOWN

§ Identity

Operator
Country
US
Launch date
2025-12-02
Launch site
AFETR
Launch vehicle
Mass (kg)
RCS (m²)

Purposes: comms

External: N2YO · Heavens-Above · Gunter

§ Orbital elements

Epoch: 2026-09-20T20:43:08.425344Z

Period
94.27 min
Inclination
43.0021°
Eccentricity
0.0001373
Mean motion
15.27587066 rev/d
Perigee alt
482.1 km
Apogee alt
484.0 km
Semi-major
6,861.2 km
B*
4.0380e-4
RAAN
321.3373°
Arg perigee
287.7535°
Mean anomaly
72.3166°
Rev number
4,603

§ Raw data

STARLINK-351181 66858U 25281L   26263.86329196  .00010868  00000+0  40380-3 0  99942 66858  43.0021 321.3373 0001373 287.7535  72.3166 15.27587066 46033

JSON: /api/v1/satellites/66858 · /tle

For live sub-satellite position, see the globe view (requires WebGL).

§ Visibility from observer

Set your observer location to see the next 7 days of passes ≥ 10°. The values pass through the URL so the page stays shareable.

No JS? Fill the form by hand. The geolocation button needs JavaScript.